www.pogodaiklimat.ru

Погода и климат >> Архив погоды >> Россия >> Пензенская область >> Пенза


АРХИВ ПОГОДЫ в Пензе

Время (UTC), дата Ветер
(напр.,м/с)
 
Видим.   Явления Облачность Т
(С)
Тd
(С)
f
(%)
Тe
(С)
Тes
(С)
Комфортность P
(гПа)
Po
(гПа)
Тmin
(С)
Tmax
(С)
R
(мм)
R24
(мм)
S
(см)
06 13.09 З 3 10 км {дождь} 9/0
[Ac As]
+18.3 +3.9 38 +19 +20 тепло 1019.3 999.0
09 13.09 З 4 10 км 8/0
[Ac As]
+23.6 +7.4 35 +24 +27 комфорт 1018.2 998.3
12 13.09 З 5
{13}
10 км 8/0
[Ac As]
+26.5 +7.0 29 +26 +27 жарко 1016.7 997.0
15 13.09 З 2
{10}
10 км 6/0
[Ac lent Cc]
+24.5 +7.7 34 +25 +25 комфорт 1016.1 996.3 +27.2 0.0
18 13.09 З 1 10 км 3/0
[Ac trans]
+19.0 +8.1 49 +21 +21 комфорт 1016.8 996.6
21 13.09 З 1 10 км 5/0
[Ac trans]
+16.9 +10.1 64 +18 +18 тепло 1017.6 997.2
00 14.09 штиль 0 10 км 6/0
[Ac trans]
+14.8 +10.8 77 +15 +15 тепло 1017.9 997.4
03 14.09 штиль 0 10 км 9/3 600 м
[Sc Ac As Cc]
+14.7 +11.5 81 +14 +14 тепло 1018.8 998.3 +14.2
06 14.09 В 2 10 км 10/3 600 м
[Sc Ac As]
+17.6 +14.9 84 +18 +19 тепло 1019.5 999.3
09 14.09 С 1 10 км 8/0
[Ac As Cs]
+22.1 +15.2 65 +26 +32 душно 1018.9 998.9
12 14.09 ЮВ 2 10 км 8/0
[Ac As Cc]
+24.3 +14.0 53 +27 +29 жарко 1018.1 998.3
15 14.09 СВ 1 10 км 10/0
[Ac As]
+21.7 +11.2 51 +24 +24 комфорт 1018.6 998.6 +24.7
18 14.09 В 2 10 км 3/0
[Cc]
+18.6 +10.1 58 +20 +20 тепло 1019.1 998.8
21 14.09 В 2 10 км 4/0
[Ac trans]
+16.4 +9.4 63 +17 +17 тепло 1019.2 998.8
00 15.09 В 2 10 км 5/0
[Ac trans]
+15.2 +10.2 72 +15 +15 тепло 1019.3 998.8
03 15.09 В 1 10 км 4/0
[Ac trans]
+13.8 +11.1 84 +14 +14 тепло 1018.9 998.3 +13.3
06 15.09 В 2 10 км 5/0
[Ac cast Cc]
+19.1 +13.2 69 +21 +24 комфорт 1018.6 998.4
09 15.09 СВ 1 10 км 8/0
[Ac lent Cc]
+24.9 +11.6 43 +26 +31 жарко 1017.2 997.4
12 15.09 В 2 10 км 9/0
[Ac lent Cs]
+27.5 +9.0 31 +28 +30 жарко 1016.1 996.5
15 15.09 В 2 10 км 9/3 1000 м
[Sc Cs]
+25.1 +9.9 38 +26 +26 жарко 1015.7 996.0 +27.5
18 15.09 ЮВ 2 10 км 6/0
[Cs]
+20.4 +11.7 57 +23 +23 комфорт 1016.5 996.4
21 15.09 ЮВ 2 10 км 3/0
[]
+17.9 +12.6 71 +18 +18 тепло 1016.6 996.4
00 16.09 В 2 10 км ясно +15.7 +11.5 76 +16 +16 тепло 1016.0 995.6
03 16.09 В 2 10 км 10/0
[Ac As Ci fib]
+15.1 +11.6 80 +15 +15 тепло 1015.3 994.9 +15.1
06 16.09 ЮВ 3 10 км 8/3 1000 м
[Cu hum Ac trans Ci fib]
+18.6 +3.3 36 +19 +21 тепло 1014.0 993.9 +15.0
09 16.09 Ю 5-11
{11}
10 км 9/0
[Ac trans Cc]
+26.1 -5.4 12 +23 +27 комфорт 1012.2 992.6
12 16.09 Ю 4
{11}
10 км 8/0
[Ac trans Cc]
+25.8 -6.7 11 +23 +25 комфорт 1010.6 991.0
15 16.09 Ю 2 10 км 10/4 1000 м
[Sc Ac trans Cs]
+22.5 -5.6 15 +21 +21 комфорт 1009.7 989.8 +27.4
18 16.09 Ю 2 10 км 8/0
[Ac As]
+20.2 -0.7 25 +21 +21 комфорт 1008.6 988.6
21 16.09 Ю 3 10 км 10/0
[Ac As]
+17.8 +4.3 41 +18 +18 тепло 1006.5 986.4
00 17.09 ЮВ 2 10 км 9/0
[Ac As]
+13.9 +11.2 84 +13 +13 тепло 1005.7 985.4
03 17.09 Ю 1 10 км 10/6 930 м
[Sc Ac As]
+13.7 +11.0 84 +14 +14 тепло 1005.6 985.3 +13.7
06 17.09 Ю 1 10 км 10/3 1000 м
[Sc Ac As]
+15.0 +10.3 73 +16 +17 тепло 1007.0 986.7
09 17.09 СВ 2 10 км в посл. час дождь 10/4 600 м
[Sc Ac As]
+16.7 +11.2 70 +17 +18 тепло 1008.1 987.9
12 17.09 СВ 4 4000 м слабый дождь {ливн. осадки} 10/10 300 м
[Frnb]
+14.2 +12.9 92 +13 +13 прохладно 1009.9 989.5
15 17.09 СВ 3 10 км в посл. час дождь 10/4 600 м
[Frnb Ac As]
+14.0 +11.5 85 +13 +13 по сезону 1011.5 991.1 +17.3 0.6
18 17.09 СВ 1
{11}
4000 м слабый дождь 10/10 930 м
[Sc]
+13.6 +10.4 81 +14 +14 тепло 1012.9 992.4
21 17.09 СВ 4
{10}
10 км {дождь} 10/5 900 м
[Sc Ac und]
+13.6 +6.6 63 +12 +12 тепло 1012.7 992.2
00 18.09 СВ 3
{10}
10 км {дождь} 8/0
[Ac trans]
+12.3 +5.9 65 +11 +11 тепло 1013.2 992.6
03 18.09 С 2 10 км 3/0
[Ac As]
+9.1 +4.8 74 +8 +8 по сезону 1014.3 993.5 +9.1 0.0
06 18.09 С 3 10 км 3/0
[Ac trans Cs]
+13.2 +5.4 59 +12 +15 по сезону 1014.5 993.9 +8.3
09 18.09 С 4 10 км 5/0
[Cc]
+16.8 +2.9 39 +16 +21 тепло 1012.9 992.6
12 18.09 СЗ 4 10 км 10/0
[Ac As]
+16.6 +4.6 45 +16 +17 по сезону 1012.1 991.8
15 18.09 СЗ 2 10 км в посл. час дождь 10/10 930 м
[Sc]
+13.5 +10.4 82 +13 +13 по сезону 1011.7 991.3 +17.5 0.0
18 18.09 З 1 10 км {дождь} 10/8 1350 м
[Sc Ac As]
+12.3 +11.7 96 +12 +12 по сезону 1012.0 991.5
21 18.09 СЗ 2 10 км 10/0
[Ac trans]
+12.6 +11.4 92 +12 +12 тепло 1011.5 991.0
00 19.09 СЗ 2 10 км ясно +10.0 +8.6 91 +8 +8 по сезону 1012.3 991.6
03 19.09 СЗ 3 10 км 9/0
[Ac As]
+8.6 +6.8 88 +6 +6 по сезону 1013.5 992.7 +8.6 0.4
06 19.09 С 3 10 км 8/0
[Ac trans Cc]
+12.3 +5.6 64 +11 +13 по сезону 1014.4 993.8 +8.6
09 19.09 С 5-10
{11}
10 км 6/6 1000 м
[Sc]
+15.0 +3.9 47 +14 +15 по сезону 1013.4 993.0
12 19.09 С 6-13
{13}
10 км 8/3 600 м
[Sc Ac lent]
+16.3 +3.2 41 +15 +16 по сезону 1013.6 993.2
15 19.09 СЗ 5
{13}
10 км 9/6 960 м
[Sc Ac lent]
+14.4 +4.9 53 +13 +13 по сезону 1014.1 993.6 +17.2
18 19.09 С 2 10 км 10/4 1000 м
[Sc Ac As]
+13.1 +9.5 79 +12 +12 тепло 1014.6 994.1
21 19.09 З 1 10 км 8/3 1000 м
[Sc Ac As]
+11.9 +9.4 85 +12 +12 тепло 1013.8 993.2
00 20.09 З 1 10 км 3/0
[Ac trans]
+10.1 +8.8 92 +10 +10 тепло 1014.1 993.3

 

Местоположение метеостанции Пенза (Пензенская область, Россия): широта 53.12 долгота 45.02 высота над уровнем моря 172 м.

В архиве по умолчанию представлена погода в Пензе за последнюю неделю. Архивные данные за месяц целиком и за предыдущие месяцы, начиная с января 2011 года, Вы можете получить, выбрав интересующий диапазон дат из раскрывающегося списка и нажав кнопку "Ввод!".


*Определитесь, кто Вы:
робот инопланетянин человек

Внимание! Время в таблицах - всемирное. Для получения местного времени необходимо прибавить поправку, которая в Пензе равна 3 ч.

Смотрите также архив погоды в соседних городах и на ближайших метеорологических станциях:

Погода в Кондоле (Пензенская область, Россия) (34 км)
Погода в Городище (Пензенская область, Россия) (47 км)
Погода в Колышлее (Пензенская область, Россия) (54 км)
Погода в Каменке (Пензенская область, Россия) (66 км)
Погода в Инсаре (Мордовия, Россия) (94 км)
Погода в Радищево (Пензенская область, Россия) (95 км)
Погода в Петровске (Саратовская область, Россия) (97 км)
Погода в Белинском (Пензенская область, Россия) (110 км)
Погода в Саранске (Мордовия, Россия) (113 км)
Погода в Пачелме (Пензенская область, Россия) (116 км)

Пояснения к столбцам:

Ветер - указаны скорость ветра в м/с - средняя за 10 мин, порывы в срок и между сроками (в фигурных скобках) и направление, откуда дует ветер: С - северный, СВ - северо-восточный, В - восточный, ЮВ - юго-восточный, Ю - южный, ЮЗ - юго-западный, З - западный, СЗ - северо-западный.
Видимость - горизонтальная дальность видимости в метрах или километрах. При видимости от 1 до 10 км при отсутствии осадков обычно наблюдается дымка, при ухудшении видимости до 1 км и менее - туман. В сухую погоду видимость может ухудшаться дымом, пылью или мглою.
Явления - указаны атмосферные явления, наблюдавшиеся в срок или в последний час перед сроком; фигурными скобками обозначены явления, наблюдавшиеся между сроками (за 1-3 часа до срока); квадратными скобками обозначены град или гололедные отложения с указанием их диаметра в мм.
Облачность - указаны через наклонную черту общая и нижняя облачность в баллах и высота нижней границы облаков в метрах; квадратными скобками обозначены формы облаков: Ci - перистые, Cs - перисто-слоистые, Cc - перисто-кучевые, Ac - высококучевые, As - высокослоистые, Sc - слоисто-кучевые, Ns - слоисто-дождевые, Cu - кучевые, Cb - кучево-дождевые. Подробнее классификацию облаков см. в Атласе облаков (PDF).
T - Температура воздуха - температура, измеренная на высоте 2 м над землей.
Td - Температура точки росы - температура, при понижении до которой содержащийся в воздухе водяной пар достигнет насыщения.
f - Относительная влажность воздуха - влажноcть воздуха, измеренная на высоте 2 м над землей.
Te - Эффективная температура - температура, которую ощущает одетый по сезону человек в тени. Характеристика душности погоды. При расчете учитывается влияние влажности воздуха и скорости ветра на теплоощущения человека.
Tes - Эффективная температура на солнце - температура, которую ощущает человек, с поправкой на солнечный нагрев. Характеристика знойности погоды. Зависит от высоты солнца над горизонтом, облачности и скорости ветра. Ночью, в пасмурную погоду, а также при ветре 12 м/с и более поправка равна нулю.
P - Атмосферное давление - приведенное к уровню моря атмосферное давление.
Po - Атмосферное давление - измеренное на уровне метеостанции атмосферное давление.
Tmin - Минимальная температура - минимум температуры воздуха на высоте 2 м над землей.
Tmax - Максимальная температура - максимум температуры воздуха на высоте 2 м над землей.
R - Количество осадков - Количество выпавших осадков за период времени, мм. При наведении курсора мыши на число - период времени, за который выпало указанное количество осадков.
R24 - Количество осадков - Количество выпавших осадков за 24 часа, мм.
S - Снежный покров - Высота снежного покрова, см. При наведении курсора мыши на число - состояние снежного покрова и степень покрытия местности в баллах.